TimeEDT,TemperatureF,Dew PointF,Humidity,Sea Level PressureIn,VisibilityMPH,Wind Direction,Wind SpeedMPH,Gust SpeedMPH,PrecipitationIn,Events,Conditions,WindDirDegrees,DateUTC
12:53 AM,55.0,48.9,80,29.71,10.0,Calm,Calm,-,N/A,,Overcast,0,2013-05-12 04:53:00
1:53 AM,55.0,48.0,77,29.70,10.0,NW,4.6,-,N/A,,Overcast,320,2013-05-12 05:53:00
2:53 AM,54.0,46.0,75,29.70,10.0,NW,4.6,-,N/A,,Overcast,310,2013-05-12 06:53:00
3:53 AM,53.1,48.0,83,29.69,10.0,Calm,Calm,-,N/A,,Overcast,0,2013-05-12 07:53:00
4:53 AM,52.0,46.9,83,29.70,10.0,SW,3.5,-,N/A,,Overcast,220,2013-05-12 08:53:00
5:53 AM,51.1,46.9,86,29.69,10.0,Calm,Calm,-,N/A,,Overcast,0,2013-05-12 09:53:00
6:53 AM,51.1,45.0,80,29.70,10.0,SW,4.6,-,N/A,,Mostly Cloudy,230,2013-05-12 10:53:00
7:53 AM,54.0,46.0,75,29.69,10.0,SW,3.5,-,N/A,,Mostly Cloudy,230,2013-05-12 11:53:00
8:53 AM,57.0,44.1,62,29.68,10.0,South,8.1,-,N/A,,Clear,190,2013-05-12 12:53:00
9:53 AM,59.0,46.0,62,29.67,10.0,Variable,6.9,-,N/A,,Scattered Clouds,0,2013-05-12 13:53:00
10:53 AM,57.9,45.0,62,29.66,10.0,WSW,6.9,-,N/A,,Overcast,250,2013-05-12 14:53:00
11:53 AM,53.1,39.9,61,29.68,10.0,West,9.2,21.9,N/A,,Overcast,280,2013-05-12 15:53:00
12:53 PM,50.0,32.0,50,29.69,10.0,WNW,10.4,18.4,N/A,,Overcast,290,2013-05-12 16:53:00
1:53 PM,54.0,35.1,49,29.70,10.0,SSW,8.1,-,N/A,,Mostly Cloudy,200,2013-05-12 17:53:00
2:53 PM,60.1,28.9,31,29.68,10.0,Variable,4.6,-,N/A,,Scattered Clouds,0,2013-05-12 18:53:00
3:53 PM,57.9,26.1,30,29.70,10.0,WSW,12.7,21.9,N/A,,Partly Cloudy,250,2013-05-12 19:53:00
4:53 PM,57.9,25.0,28,29.71,10.0,SW,15.0,21.9,N/A,,Partly Cloudy,230,2013-05-12 20:53:00
5:53 PM,55.9,21.9,27,29.72,10.0,West,15.0,28.8,N/A,,Partly Cloudy,260,2013-05-12 21:53:00
6:53 PM,54.0,25.0,33,29.74,10.0,West,11.5,21.9,N/A,,Clear,260,2013-05-12 22:53:00
7:53 PM,51.1,21.9,32,29.77,10.0,WSW,6.9,-,N/A,,Clear,250,2013-05-12 23:53:00
8:53 PM,48.9,24.1,38,29.80,10.0,West,8.1,-,N/A,,Clear,280,2013-05-13 00:53:00
9:53 PM,46.9,27.0,46,29.83,10.0,WSW,9.2,19.6,N/A,,Clear,250,2013-05-13 01:53:00
10:53 PM,43.0,28.0,56,29.84,10.0,SW,5.8,-,N/A,,Clear,230,2013-05-13 02:53:00
11:53 PM,44.1,28.9,55,29.84,10.0,WSW,8.1,-,N/A,,Mostly Cloudy,240,2013-05-13 03:53:00